Wetbulb
52.70 53.04 52.87 52.96 52.67 52.26 51.76 51.34 52.42 52.83 52.91 52.90 53.23 53.39 53.72 54.14 54.54 53.33 52.15 51.90 53.31 53.99 54.76 57.46 58.87 58.80 54.27 49.57 49.00 56.04 62.02 60.52 56.82 53.89 51.33 50.35 48.12 46.96 43.43 44.05 43.91 43.51 45.00 46.65 47.64 47.13 45.77
51.89 52.23 52.53 52.63 52.61 52.45 52.43 51.52 52.14 52.26 52.41 52.57 52.71 53.19 53.04 53.73 53.90 54.36 53.05 51.68 51.46 51.65 53.07 55.63 58.74 58.26 50.63 43.44 55.47 57.52 56.01 57.12 55.82 53.90 51.69 51.65 49.96 48.95 45.99 44.62 44.16 45.52 44.67 45.04 46.16 46.13 45.70
51.11 51.34 51.66 51.91 52.17 52.19 52.12 52.02 51.58 51.94 51.70 51.63 51.84 52.21 52.71 52.38 53.13 54.27 53.78 53.05 51.84 51.50 52.11 53.78 56.64 56.32 50.54 46.79 53.34 55.08 54.64 54.47 55.13 54.98 52.83 54.32 53.20 48.74 47.16 44.48 47.33 45.56 42.44 43.95 44.15 45.21 45.15
49.95 50.63 50.70 50.76 51.05 51.73 51.77 51.73 51.44 50.87 51.39 51.58 51.13 51.82 52.19 52.30 52.50 52.63 53.27 53.61 53.10 52.79 52.76 53.64 55.41 55.99 49.09 54.85 55.80 53.92 53.78 52.31 54.83 55.16 54.31 55.14 55.09 49.70 47.35 48.39 46.12 41.66 40.65 37.74 44.32 44.72 45.66
49.03 49.25 49.76 50.01 50.03 50.70 51.37 51.38 51.55 51.42 50.69 51.28 51.06 50.97 51.42 51.78 51.91 52.18 52.22 52.41 53.07 52.94 53.27 53.87 51.68 53.57 47.67 56.29 50.89 53.20 54.34 51.05 52.56 53.79 54.26 56.79 51.68 47.07 45.71 42.09 38.46 37.85 34.55 36.87 41.26 46.70 45.60
48.25 48.34 48.78 48.90 49.28 49.62 50.16 50.60 50.87 51.18 51.24 50.60 50.47 50.55 50.79 50.78 51.22 51.20 51.34 51.87 51.88 51.58 51.55 52.28 52.70 49.34 50.46 47.10 51.27 52.55 53.78 54.43 52.14 51.38 50.58 50.52 47.25 41.94 40.02 38.71 34.18 36.15 35.78 38.04 38.22 43.33 42.89
47.60 48.14 47.53 48.43 48.72 48.85 49.21 49.37 49.83 49.53 49.98 50.77 50.59 50.51 50.63 50.66 50.77 50.64 49.03 45.93 42.54 45.38 47.01 44.52 47.45 48.66 48.93 52.26 53.63 51.42 52.69 51.35 52.10 48.70 42.66 46.04 41.51 39.35 41.68 42.66 43.67 42.34 39.06 36.80 37.26 43.86 42.57
46.92 46.82 47.28 47.82 48.32 48.65 48.86 48.59 48.79 49.03 49.31 49.83 49.99 49.75 50.08 50.24 50.35 49.93 47.56 41.76 42.46 41.03 34.68 41.42 44.15 48.03 52.56 53.01 46.37 49.06 53.48 46.22 45.49 40.80 44.49 42.52 40.24 44.58 44.79 44.36 42.92 42.18 39.83 38.98 39.55 43.56 43.10
46.32 46.88 46.51 47.09 47.47 48.07 48.44 48.25 48.07 48.47 48.58 48.98 49.36 49.60 49.57 49.74 49.50 46.71 43.61 43.80 47.69 45.61 35.10 38.46 42.53 44.39 50.16 51.51 46.92 47.21 50.81 48.50 43.53 40.74 42.20 40.03 42.27 47.16 45.31 43.05 40.93 41.06 39.34 39.46 39.18 43.50 45.04
46.38 45.65 46.26 46.37 46.59 46.86 47.08 47.33 47.64 47.77 48.06 48.45 48.55 48.87 49.52 49.04 45.25 42.70 41.33 46.18 47.85 47.22 29.66 32.01 37.59 43.55 46.55 49.97 45.70 51.60 52.92 49.50 46.92 40.13 42.01 41.58 45.40 43.70 43.43 42.00 42.80 38.10 43.63 42.86 41.62 39.50 34.70
45.72 45.65 45.69 45.52 45.70 45.78 45.97 46.42 46.62 47.09 47.68 47.81 47.99 48.14 49.00 48.41 43.09 41.01 42.37 45.98 46.72 43.88 13.21 33.47 38.29 50.36 48.30 44.42 46.51 47.88 52.35 49.86 44.13 43.53 42.97 37.80 40.72 41.75 40.58 42.24 44.37 40.85 45.14 43.21 42.25 38.19 35.64
45.31 45.22 45.15 45.36 45.08 45.22 45.59 45.76 45.92 46.40 46.96 47.06 47.37 47.61 48.24 44.87 45.38 45.24 45.46 44.19 41.83 26.17 13.32 29.68 38.71 43.15 44.01 44.46 44.25 46.53 46.84 50.57 49.26 45.09 44.42 41.68 45.60 44.69 43.21 45.45 46.10 46.47 43.39 42.41 41.71 37.99 30.67
44.95 44.95 44.99 44.93 44.66 44.66 45.10 45.40 45.57 45.87 46.42 46.69 47.28 47.43 46.05 46.08 40.92 47.35 46.00 40.40 25.09 17.06 30.09 30.41 34.44 40.43 40.40 40.03 42.49 43.61 41.79 40.39 39.13 37.15 37.74 41.63 41.87 44.53 44.80 40.49 44.58 43.15 39.09 31.84 29.54 28.54 28.37
45.32 45.02 44.80 44.77 44.66 44.71 44.74 44.79 45.19 45.62 45.96 46.28 47.26 47.10 45.91 45.04 45.65 46.58 42.21 31.62 15.97 21.38 24.55 32.58 34.78 36.38 35.54 39.57 40.52 41.72 40.46 38.66 41.71 41.26 35.53 35.76 34.16 42.35 44.10 41.83 38.99 40.37 39.58 31.99 25.66 26.25 29.52
45.67 45.47 45.19 45.01 44.89 44.93 44.85 44.92 44.97 45.32 46.35 46.66 46.77 42.19 43.82 44.91 45.21 45.35 33.66 21.30 16.69 22.24 28.95 28.98 29.97 28.29 31.16 37.37 37.61 38.77 39.16 38.88 40.94 41.92 36.41 35.68 35.79 42.77 45.29 44.94 43.71 39.29 36.81 41.83 33.76 32.05 28.65
45.65 45.38 45.21 45.00 44.83 44.74 44.80 44.81 45.00 45.17 45.90 46.11 41.70 40.45 40.80 44.91 46.02 41.64 29.46 25.28 24.88 29.57 30.02 30.06 24.07 28.61 26.17 31.63 34.77 35.99 36.09 40.57 40.74 43.05 44.78 38.95 32.55 41.31 43.58 45.80 44.97 42.01 44.10 35.25 36.18 28.00 25.51
45.29 45.45 45.25 44.87 44.65 44.50 44.77 44.77 44.96 45.01 45.50 45.77 40.27 34.77 42.49 45.42 44.93 34.92 24.50 24.60 28.22 31.40 31.06 27.34 25.84 25.91 27.44 27.47 32.69 33.79 36.37 39.27 41.87 42.38 43.68 41.52 38.18 35.22 42.11 40.28 38.77 39.50 38.03 39.10 38.25 34.07 27.69
44.41 44.73 44.96 44.86 44.57 44.45 44.64 44.50 44.69 44.88 44.98 43.16 38.26 29.46 43.17 44.77 32.04 31.94 25.92 27.91 32.68 28.50 30.99 28.96 29.81 28.27 27.43 28.49 27.63 29.66 32.38 37.33 40.89 39.31 39.17 42.33 39.06 34.01 36.75 41.82 45.26 42.96 39.93 39.52 33.06 31.08 34.32
43.92 44.18 44.36 44.69 44.69 44.44 44.37 44.03 44.15 44.65 44.72 40.24 32.61 33.97 42.10 42.35 26.47 27.00 31.08 29.19 30.84 28.52 27.86 27.34 26.79 29.82 30.38 26.93 23.86 28.59 30.40 36.55 38.01 37.29 36.26 41.40 36.54 31.30 33.42 38.61 42.36 39.55 40.52 41.04 39.72 34.60 32.71
43.18 43.32 43.66 44.00 43.99 44.40 44.28 43.75 43.70 44.29 44.62 40.97 32.80 27.44 32.43 36.88 35.26 28.07 27.19 28.64 28.04 32.81 30.38 29.71 28.24 30.17 27.39 25.81 29.56 27.00 29.03 34.92 39.12 39.25 40.43 38.82 35.12 34.46 30.24 34.20 38.55 35.99 38.24 40.72 39.47 33.93 33.98
42.82 43.12 43.59 43.54 43.47 43.81 43.50 43.20 43.57 43.94 44.13 39.96 32.42 30.34 30.84 25.84 28.15 31.12 28.90 28.03 26.97 26.31 31.01 30.82 27.96 26.53 26.61 23.35 24.52 25.05 28.87 30.91 33.86 36.89 36.86 34.19 29.93 33.08 35.66 38.02 38.84 38.87 37.83 38.24 37.51 38.19 34.19
42.64 42.64 43.54 43.60 42.82 42.71 43.07 43.02 43.77 43.59 43.75 37.11 30.20 30.21 34.05 30.80 29.54 27.54 30.73 28.75 27.18 27.98 28.77 27.47 26.18 28.08 26.87 23.95 25.73 23.48 27.22 27.94 27.99 33.08 33.18 34.63 26.51 30.02 27.27 31.80 37.68 36.88 39.86 39.58 39.36 39.16 38.92
42.73 42.64 43.41 43.28 43.04 42.97 42.23 42.95 42.98 43.24 42.71 35.53 37.22 37.73 33.76 30.16 29.61 27.84 26.82 27.52 28.03 30.53 31.08 31.94 29.60 27.65 26.11 26.89 30.34 31.60 30.56 30.55 30.76 29.82 30.35 28.60 28.12 26.27 22.13 28.85 27.08 24.97 34.89 38.57 39.72 40.50 39.89
42.83 42.74 43.33 43.06 42.93 42.20 42.41 42.53 42.60 42.58 42.58 38.87 37.57 36.55 30.53 25.28 27.80 27.75 30.04 30.69 29.59 30.14 28.35 31.63 32.74 29.64 31.51 34.51 32.70 30.33 30.61 30.17 29.61 28.74 32.00 25.93 26.02 26.18 21.31 23.85 16.49 29.69 35.78 34.25 38.00 41.54 42.85
42.68 42.84 42.92 42.59 42.23 41.97 42.40 42.25 42.51 42.56 43.24 39.99 39.06 36.20 31.02 25.80 28.91 29.00 29.57 29.26 30.58 31.74 31.43 31.97 33.26 35.78 35.79 32.89 26.59 23.64 19.95 18.67 23.10 27.15 28.03 29.46 25.37 20.33 18.64 18.01 22.98 26.52 30.31 33.64 35.82 36.58 44.02
42.36 42.77 42.61 42.37 42.20 42.23 42.21 42.28 42.44 42.23 42.99 40.83 39.68 40.51 35.07 27.75 26.74 31.04 28.66 30.14 28.25 29.65 30.25 32.35 36.24 38.32 35.37 29.24 25.08 18.32 15.40 14.86 12.26 19.05 28.53 28.11 29.06 22.94 17.03 15.73 13.99 25.98 33.20 38.85 36.45 25.90 37.98
41.41 42.02 41.99 41.94 42.18 42.23 42.18 42.09 42.26 42.13 42.77 41.03 40.09 41.64 37.12 29.97 33.37 33.03 30.00 30.29 34.20 33.13 30.68 30.76 32.52 31.48 33.25 26.65 22.48 20.56 18.92 23.28 14.67 14.10 16.70 19.30 18.79 19.95 19.67 17.69 22.11 30.56 33.91 36.30 24.42 29.38 43.30
40.83 41.30 41.21 41.40 41.83 41.99 41.91 41.75 41.95 42.07 42.43 41.03 38.93 41.97 37.79 31.95 33.96 36.74 37.25 33.87 33.47 33.50 29.43 30.55 29.88 29.82 28.25 24.18 23.49 21.56 18.62 20.94 20.63 24.00 22.73 20.82 17.91 19.67 20.93 18.40 15.65 35.69 37.97 34.16 36.85 40.25 40.48
40.33 40.52 40.28 40.49 41.00 41.44 41.05 41.06 41.51 41.67 42.76 43.77 37.10 42.31 42.70 35.33 32.72 38.47 39.05 39.97 38.83 37.57 33.23 32.62 28.92 28.77 28.20 26.18 25.75 20.05 18.07 13.75 21.71 17.50 26.75 20.69 24.76 21.45 23.86 24.61 33.81 38.93 39.72 41.68 42.58 41.87 41.48
MSLP
1017.07 1016.70 1016.31 1015.86 1015.48 1015.30 1015.15 1015.04 1014.86 1014.75 1014.47 1014.23 1014.00 1013.86 1013.76 1013.32 1013.05 1013.21 1013.23 1013.08 1012.73 1012.39 1012.17 1011.95 1011.81 1012.05 1012.15 1011.74 1009.59 1007.64 1007.62 1007.82 1007.66 1007.68 1008.27 1008.30 1008.43 1008.66 1008.93 1009.07 1009.01 1009.17 1008.68 1008.50 1008.19 1008.08 1007.94
1017.01 1016.55 1016.18 1015.58 1015.18 1015.08 1014.87 1014.63 1014.58 1014.45 1014.22 1014.08 1013.79 1013.65 1013.59 1013.44 1013.03 1012.87 1013.14 1012.98 1012.66 1012.46 1012.34 1011.88 1011.65 1011.70 1011.99 1010.68 1008.39 1007.74 1007.79 1007.75 1007.83 1007.75 1008.07 1008.27 1008.15 1008.40 1008.44 1008.75 1008.95 1008.43 1008.22 1008.20 1008.03 1007.84 1007.73
1016.94 1016.53 1016.07 1015.64 1015.23 1014.93 1014.63 1014.47 1014.35 1014.24 1014.01 1013.81 1013.60 1013.48 1013.37 1013.17 1012.95 1012.52 1012.55 1012.64 1012.59 1012.38 1012.26 1011.96 1011.44 1010.91 1010.58 1007.51 1007.63 1007.90 1008.07 1008.08 1008.10 1008.05 1008.16 1008.10 1008.01 1008.32 1008.24 1008.47 1008.41 1008.43 1008.53 1008.09 1007.82 1007.32 1007.20
1016.88 1016.49 1016.07 1015.56 1015.16 1014.82 1014.47 1014.15 1013.95 1013.79 1013.67 1013.46 1013.29 1013.22 1013.03 1012.85 1012.75 1012.45 1012.35 1012.35 1012.22 1012.25 1011.93 1011.93 1011.44 1010.36 1008.45 1007.25 1007.19 1007.90 1008.07 1007.98 1008.06 1008.18 1008.20 1008.14 1008.24 1008.49 1008.25 1008.13 1008.41 1008.68 1008.76 1008.45 1006.78 1006.58 1006.62
1016.98 1016.44 1016.01 1015.57 1015.18 1014.77 1014.39 1013.99 1013.68 1013.47 1013.26 1013.08 1013.01 1012.96 1012.80 1012.56 1012.36 1012.24 1012.08 1012.09 1011.96 1011.82 1011.48 1011.99 1011.39 1009.52 1007.78 1006.75 1007.30 1007.32 1007.49 1007.54 1007.57 1007.64 1007.94 1007.82 1008.14 1008.34 1008.28 1008.30 1009.01 1008.76 1008.83 1008.43 1007.38 1006.62 1006.54
1016.95 1016.48 1015.99 1015.46 1015.10 1014.67 1014.25 1013.92 1013.66 1013.29 1013.04 1012.88 1012.77 1012.60 1012.44 1012.36 1012.09 1011.95 1011.74 1011.67 1011.45 1011.53 1011.24 1011.63 1010.49 1008.76 1007.14 1006.41 1006.47 1006.21 1006.26 1006.94 1007.30 1007.54 1007.99 1007.93 1008.26 1008.21 1008.23 1008.37 1007.48 1008.46 1008.49 1008.08 1007.31 1006.79 1006.87
1016.83 1016.32 1015.94 1015.44 1015.04 1014.61 1014.09 1013.84 1013.57 1013.26 1012.91 1012.58 1012.35 1012.23 1012.08 1011.81 1011.79 1011.74 1011.87 1011.67 1011.29 1011.21 1010.81 1009.22 1008.36 1006.89 1005.34 1005.42 1005.48 1005.80 1005.79 1006.77 1007.10 1007.51 1007.60 1007.97 1008.13 1006.54 1006.62 1007.32 1007.58 1007.65 1007.65 1007.38 1007.02 1006.58 1006.68
1016.60 1016.16 1015.83 1015.39 1014.94 1014.52 1014.11 1013.70 1013.43 1013.16 1012.79 1012.43 1012.19 1011.87 1011.70 1011.54 1011.52 1011.52 1011.66 1011.58 1011.13 1011.36 1010.42 1008.86 1007.79 1007.18 1005.67 1005.65 1004.88 1005.39 1005.46 1006.48 1006.83 1006.81 1007.52 1008.08 1005.92 1005.15 1006.91 1007.18 1007.33 1007.34 1007.00 1006.04 1006.70 1006.48 1006.83
1016.54 1016.11 1015.78 1015.38 1014.87 1014.42 1014.07 1013.71 1013.28 1012.92 1012.60 1012.36 1012.01 1011.81 1011.50 1011.30 1011.31 1011.45 1011.48 1011.17 1010.97 1010.96 1010.76 1008.43 1007.05 1006.17 1005.70 1005.91 1005.43 1004.58 1004.93 1005.10 1005.53 1006.27 1005.82 1005.53 1002.72 1005.80 1006.26 1006.51 1006.78 1006.08 1006.04 1006.56 1006.67 1006.84 1006.28
1016.33 1015.94 1015.67 1015.20 1014.84 1014.39 1014.06 1013.68 1013.21 1012.75 1012.41 1012.19 1011.91 1011.70 1011.45 1011.32 1011.75 1011.46 1011.20 1010.86 1010.77 1010.95 1010.41 1007.33 1006.12 1004.16 1004.98 1005.20 1004.52 1004.00 1004.09 1004.01 1004.94 1005.39 1006.01 1005.36 1004.22 1004.79 1005.21 1005.23 1005.86 1005.43 1005.85 1006.63 1006.93 1007.47 1006.54
1016.29 1015.89 1015.42 1014.96 1014.62 1014.20 1013.83 1013.49 1013.08 1012.66 1012.27 1011.97 1011.71 1011.51 1011.32 1011.36 1011.35 1011.47 1010.86 1010.40 1010.69 1011.29 1009.82 1005.22 1003.53 1002.04 1002.56 1003.49 1003.04 1002.91 1003.56 1003.59 1003.77 1004.36 1005.19 1002.97 1003.48 1004.29 1004.76 1003.36 1005.43 1004.60 1005.56 1006.31 1006.94 1007.24 1007.20
1016.00 1015.62 1015.25 1014.86 1014.49 1014.07 1013.60 1013.23 1012.91 1012.50 1012.09 1011.75 1011.42 1011.18 1011.18 1011.21 1011.21 1011.07 1011.16 1010.88 1011.23 1011.26 1007.82 1004.89 1003.03 1001.80 1002.31 1002.36 1001.97 1002.18 1002.53 1002.89 1003.17 1003.57 1003.45 1002.34 1003.20 1003.61 1002.65 1003.80 1004.53 1005.33 1005.88 1006.48 1006.99 1007.72 1006.51
1015.64 1015.33 1014.98 1014.56 1014.17 1013.80 1013.37 1012.94 1012.64 1012.28 1011.86 1011.45 1011.07 1010.89 1010.96 1011.01 1010.83 1010.83 1011.32 1011.41 1011.35 1009.52 1006.77 1004.58 1003.01 1002.22 1001.93 1001.85 1001.86 1001.79 1002.18 1002.43 1002.82 1003.11 1002.63 1002.68 1002.67 1002.88 1002.92 1003.47 1004.06 1004.84 1005.71 1006.56 1007.17 1007.06 1002.81
1015.18 1014.87 1014.59 1014.27 1013.82 1013.40 1013.03 1012.64 1012.27 1011.93 1011.50 1011.06 1010.63 1010.35 1010.18 1010.38 1010.51 1010.82 1011.18 1011.35 1010.19 1008.24 1006.65 1004.61 1003.29 1002.64 1002.03 1001.90 1001.54 1001.66 1001.50 1001.64 1002.17 1002.00 1002.12 1002.27 1001.86 1001.62 1001.90 1002.01 1002.59 1003.52 1004.16 1004.46 1004.88 1004.60 1002.55
1014.75 1014.42 1014.14 1013.85 1013.49 1013.06 1012.64 1012.25 1011.85 1011.42 1011.02 1010.56 1010.04 1009.59 1009.45 1009.21 1009.87 1010.68 1011.13 1010.39 1008.68 1006.68 1004.79 1003.97 1003.58 1003.24 1002.52 1001.85 1001.64 1001.63 1001.12 1000.74 1000.80 1001.61 1001.75 1001.30 1000.61 999.99 1000.38 1001.36 1001.90 1002.71 1003.16 1002.75 1004.09 1004.13 1003.69
1014.31 1013.96 1013.65 1013.34 1013.06 1012.71 1012.27 1011.87 1011.41 1011.00 1010.60 1010.19 1009.91 1009.29 1008.43 1008.18 1009.18 1010.08 1010.41 1008.50 1005.78 1004.56 1004.33 1004.00 1003.90 1003.53 1002.91 1002.03 1001.82 1001.74 1001.03 1000.29 1000.30 1000.72 1001.09 1000.61 1000.40 999.47 1000.01 1000.68 1000.84 1000.12 1001.31 1003.10 1004.00 1004.44 1003.73
1013.88 1013.49 1013.15 1012.81 1012.54 1012.25 1011.84 1011.46 1011.07 1010.61 1010.23 1009.94 1009.58 1008.52 1007.10 1007.32 1008.49 1008.97 1007.68 1004.82 1004.09 1004.78 1005.11 1004.98 1004.14 1004.06 1003.51 1003.14 1002.61 1001.83 1001.03 999.92 999.74 1000.06 1000.95 1000.83 1000.35 999.76 999.49 998.60 998.48 1000.36 1000.73 1001.74 1003.19 1003.41 1002.14
1013.28 1013.00 1012.63 1012.30 1011.99 1011.67 1011.38 1011.04 1010.70 1010.34 1010.00 1009.45 1008.95 1007.92 1006.70 1007.27 1007.57 1006.94 1005.26 1005.75 1004.44 1004.86 1005.09 1004.94 1004.74 1004.33 1003.73 1003.32 1002.95 1002.64 1002.16 1001.27 1000.65 1001.44 1000.42 1000.27 1000.25 999.53 998.43 997.79 998.01 997.94 998.13 999.99 1000.99 1000.46 1000.61
1012.74 1012.38 1012.06 1011.71 1011.39 1011.08 1010.83 1010.55 1010.27 1009.99 1009.76 1009.70 1008.47 1007.48 1006.92 1007.12 1005.91 1005.16 1005.03 1004.81 1005.15 1005.01 1004.92 1004.88 1004.69 1004.38 1004.09 1004.03 1004.36 1003.19 1002.35 1001.25 1001.13 1001.27 1002.06 1000.52 1000.33 999.04 998.92 999.02 997.84 996.98 996.31 997.80 998.26 999.16 998.62
1011.98 1011.70 1011.39 1011.06 1010.73 1010.46 1010.25 1010.01 1009.74 1009.49 1009.30 1009.47 1008.59 1007.39 1006.50 1005.96 1005.42 1005.21 1005.02 1004.29 1004.26 1004.26 1004.42 1004.52 1004.24 1004.35 1004.17 1003.50 1003.90 1003.24 1002.71 1001.91 1001.65 1001.62 1002.47 1002.17 1000.74 999.37 997.68 995.36 996.15 997.23 996.65 996.93 997.34 998.16 995.75
1011.27 1010.95 1010.69 1010.41 1010.11 1009.88 1009.59 1009.38 1009.11 1008.98 1008.84 1009.14 1008.05 1006.58 1005.76 1005.26 1004.79 1004.39 1004.45 1003.50 1002.47 1002.66 1003.67 1004.02 1003.90 1003.23 1003.76 1003.98 1004.08 1003.41 1003.08 1002.38 1001.70 1001.88 1002.64 1003.49 1002.03 1000.74 999.12 996.35 996.62 995.44 995.58 995.87 995.89 995.24 995.85
1010.52 1010.21 1009.91 1009.71 1009.40 1009.13 1008.92 1008.63 1008.37 1008.30 1008.20 1008.39 1007.68 1006.71 1005.47 1004.80 1003.94 1003.73 1003.05 1001.90 1002.31 1002.76 1003.35 1002.93 1002.67 1001.59 1003.53 1003.34 1003.39 1002.55 1002.47 1002.39 1002.09 1002.35 1002.78 1003.85 1003.24 1002.69 1001.08 999.68 997.44 995.79 994.64 995.11 995.03 994.33 994.49
1009.79 1009.50 1009.18 1008.96 1008.70 1008.34 1008.11 1007.81 1007.69 1007.63 1007.63 1007.31 1006.54 1005.87 1005.13 1003.86 1003.50 1003.01 1002.28 1002.06 1000.96 1002.20 1001.47 1000.79 1000.47 1001.75 1002.83 1000.12 1000.29 1000.89 1002.80 1002.77 1002.44 1003.03 1003.50 1004.10 1004.12 1003.69 1001.53 1001.44 999.66 996.97 994.89 994.26 994.25 994.08 993.78
1009.03 1008.73 1008.38 1008.13 1007.97 1007.62 1007.30 1007.10 1006.92 1006.78 1006.71 1006.69 1005.82 1005.61 1004.65 1002.70 1002.58 1001.49 1001.64 1001.07 1000.44 1000.43 999.92 999.08 999.86 1000.59 997.79 999.83 1001.21 1001.77 1002.42 1002.58 1002.42 1002.70 1003.54 1003.78 1003.98 1004.28 1002.64 1002.48 999.42 997.37 995.78 994.96 993.62 992.04 992.03
1008.24 1007.96 1007.72 1007.43 1007.11 1006.79 1006.49 1006.23 1005.95 1005.69 1005.44 1005.22 1004.78 1004.80 1004.15 1001.76 1001.21 1000.62 1000.53 1000.02 999.20 998.62 998.05 997.69 997.47 996.36 998.63 1000.37 1001.63 1002.32 1002.80 1002.67 1001.83 1001.28 1001.60 1002.47 1003.54 1003.62 1003.04 1000.87 999.47 997.27 995.04 994.47 993.47 991.34 989.77
1007.57 1007.24 1006.90 1006.68 1006.31 1005.99 1005.61 1005.25 1004.87 1004.53 1004.21 1003.83 1003.27 1003.15 1002.47 1001.30 999.51 999.61 999.14 998.78 997.71 996.67 995.83 995.05 995.53 996.83 998.28 1000.04 1000.80 1001.31 1001.82 1001.71 1001.44 1000.14 999.33 1000.54 1001.23 1002.34 1001.66 999.74 997.46 993.05 993.62 993.77 993.80 992.34 991.61
1006.83 1006.52 1006.19 1005.80 1005.40 1005.00 1004.62 1004.23 1003.74 1003.31 1002.95 1002.66 1001.47 1001.60 1000.95 999.48 998.48 998.43 997.76 996.89 995.95 995.16 994.35 993.85 994.66 996.33 997.99 998.90 999.73 1000.27 1000.77 1000.41 1000.51 999.72 999.57 1000.21 1000.68 1000.58 999.72 998.54 995.87 991.63 993.29 994.32 994.82 991.54 989.52
1006.04 1005.75 1005.42 1005.01 1004.56 1004.06 1003.67 1003.22 1002.64 1002.09 1001.61 1001.37 999.64 999.95 999.25 998.53 997.47 997.22 996.74 995.94 995.11 994.24 994.11 994.28 995.31 996.01 997.42 998.20 998.87 999.33 999.65 999.27 999.19 998.39 997.85 998.30 999.09 999.13 998.37 997.39 995.38 992.04 992.48 992.78 991.60 990.77 990.86
1005.24 1004.94 1004.58 1004.18 1003.73 1003.26 1002.76 1002.23 1001.54 1000.92 1000.12 999.52 998.29 996.98 997.69 997.74 997.17 996.73 996.12 995.47 994.76 994.18 993.86 994.13 994.10 994.77 995.54 996.93 997.84 998.33 998.52 998.23 997.87 997.37 996.67 997.07 995.98 996.05 995.95 994.32 992.24 991.22 990.29 989.71 990.06 990.52 989.94
Wind_Speed
19 21 20 22 19 19 18 18 17 15 14 14 12 12 15 14 9 9 10 12 13 14 13 10 6 6 3 3 10 1 9 6 3 5 3 3 4 5 5 4 2 6 4 6 7 6 5
21 20 21 23 16 17 19 18 16 15 15 15 13 12 12 13 11 10 8 10 11 14 15 13 8 9 3 14 5 5 6 3 2 3 3 4 3 3 3 3 6 3 4 5 6 7 5
21 21 21 21 20 19 19 18 17 16 15 15 15 14 13 12 13 11 9 8 10 13 15 17 14 8 10 21 3 3 5 1 1 2 1 3 1 3 2 2 2 3 5 7 6 8 9
21 22 21 21 21 21 17 17 17 17 16 15 16 15 13 12 10 10 10 11 10 14 14 17 19 8 11 6 12 14 9 6 6 6 3 6 4 3 5 4 2 1 1 2 5 9 4
20 20 21 20 20 20 19 18 16 17 18 16 16 16 14 13 11 11 9 10 14 15 13 17 11 8 7 4 6 6 7 13 3 5 6 5 3 6 3 5 3 2 4 7 7 7 5
20 19 20 20 20 19 19 19 18 16 16 17 17 16 15 13 11 11 11 10 15 11 8 9 11 5 5 5 6 6 11 9 5 7 4 6 3 4 3 7 15 6 5 5 7 2 1
19 20 18 20 20 19 18 18 18 17 16 12 16 17 15 12 10 10 4 4 2 7 9 10 4 7 2 10 5 5 7 11 3 2 9 5 4 22 19 12 10 10 8 9 2 4 5
17 19 19 20 20 19 18 18 18 17 17 17 13 10 16 13 9 9 1 2 2 3 8 11 16 16 17 4 1 6 13 10 11 17 11 5 24 15 8 13 12 15 19 23 5 7 3
18 18 18 19 19 19 19 18 18 16 17 16 16 15 10 14 9 2 4 4 5 1 4 7 10 13 8 10 7 7 16 8 5 11 21 25 24 12 13 12 18 21 22 14 14 6 12
19 18 19 18 18 18 18 19 19 17 17 16 16 16 13 7 3 2 4 7 4 3 4 8 9 11 16 6 12 17 16 7 6 17 13 16 24 9 19 19 17 21 9 11 11 3 13
18 18 19 19 18 18 17 18 19 19 17 17 17 16 14 6 2 3 5 4 6 1 4 4 9 7 13 22 6 18 16 16 13 12 10 14 10 18 22 24 14 11 9 11 9 8 10
17 18 18 18 19 19 18 18 19 19 18 18 18 17 14 5 3 1 1 5 4 5 11 4 5 13 16 22 19 7 19 17 7 16 20 29 10 16 28 20 16 6 4 2 4 2 14
16 17 18 18 19 19 19 19 19 19 19 19 18 15 10 2 3 6 3 4 5 6 4 4 5 7 20 18 23 16 20 22 12 10 19 15 21 5 4 10 14 12 11 7 8 8 20
15 16 17 18 19 19 20 20 20 20 19 19 18 16 8 4 5 9 1 2 4 7 9 3 1 5 13 14 17 24 15 17 27 18 2 16 16 26 14 17 8 23 20 9 11 13 13
16 16 16 17 18 19 20 21 21 21 19 19 20 3 3 6 7 7 3 5 11 12 8 11 3 3 4 14 9 18 26 20 19 28 17 11 17 3 17 17 18 9 21 25 5 0 3
17 17 17 17 18 19 19 20 21 21 21 20 5 4 5 8 12 7 5 15 17 13 2 4 5 6 5 7 17 15 20 16 23 25 21 7 7 11 10 21 21 20 12 13 13 8 12
19 19 18 17 17 19 20 20 20 21 21 20 3 5 5 12 11 7 16 20 11 3 9 3 7 3 6 14 4 15 6 16 24 21 24 20 9 4 14 20 25 18 13 4 6 6 8
20 19 20 18 17 18 19 20 21 20 21 11 4 4 3 11 9 6 20 5 3 3 5 11 2 6 14 13 8 9 6 8 11 5 23 25 13 19 17 5 20 27 27 24 11 21 16
20 21 20 19 18 18 19 19 21 20 19 6 3 4 4 8 8 16 8 24 9 4 5 6 9 8 6 10 7 12 15 16 20 9 8 14 8 12 18 17 8 31 32 25 22 5 24
19 20 21 19 20 19 19 19 20 20 19 7 3 4 3 8 8 9 15 18 19 11 18 10 3 14 12 16 9 6 14 8 2 7 6 9 5 15 20 26 16 12 22 26 25 16 24
20 19 21 18 19 19 18 20 21 19 18 6 3 5 4 6 14 11 8 6 25 22 16 14 14 23 16 16 8 17 13 15 16 13 8 3 7 9 29 32 27 26 26 25 33 34 25
20 20 21 17 17 19 19 19 20 19 18 4 5 4 1 5 6 6 22 18 25 16 13 19 25 26 19 23 19 19 19 15 17 2 3 4 8 13 18 19 25 26 29 26 26 30 31
20 21 21 17 18 17 20 19 19 19 15 4 3 8 7 5 8 11 14 19 28 21 25 27 30 19 15 34 30 22 3 6 17 4 4 6 4 7 23 12 18 12 24 26 27 29 29
20 21 19 17 18 19 19 19 20 21 18 7 6 5 7 13 11 15 19 19 25 27 33 34 27 22 42 4 6 5 12 15 17 15 8 7 5 3 13 6 16 6 11 15 19 26 31
20 22 19 19 19 20 20 20 21 22 23 10 7 7 7 10 11 15 20 24 28 29 34 34 32 33 5 18 7 5 2 5 12 15 15 15 10 6 12 14 17 25 19 14 14 29 31
20 21 19 19 21 21 21 21 22 23 24 13 10 9 7 8 14 17 19 21 21 20 23 29 28 20 11 6 5 9 8 6 7 7 20 19 15 11 4 11 12 23 8 8 17 21 23
21 21 19 21 21 21 22 22 22 25 25 14 9 12 8 6 8 8 12 13 14 16 11 4 17 10 17 9 9 7 7 8 5 6 6 5 5 16 15 12 9 28 21 19 13 22 18
21 20 20 21 22 23 20 22 23 26 27 18 8 12 11 6 10 10 11 8 6 6 6 2 7 4 8 9 7 5 5 8 7 5 8 11 8 9 10 13 21 8 9 14 7 13 10
20 21 21 22 23 22 22 24 25 27 27 23 12 6 9 7 4 3 10 10 10 10 3 6 3 5 6 5 4 4 3 1 8 9 5 8 9 6 9 8 12 5 5 5 5 16 13
Wind_Direction
336 339 329 320 297 297 298 300 301 304 312 310 307 307 309 308 282 300 316 322 325 328 326 316 246 190 151 210 240 257 333 356 25 133 182 196 165 173 193 213 174 232 192 205 215 251 228
344 345 344 343 318 299 295 294 297 298 301 301 300 299 298 304 301 271 274 314 324 327 313 307 252 158 167 245 218 283 19 21 95 116 179 171 180 191 257 227 180 244 251 258 245 225 218
344 342 341 350 345 324 297 291 292 288 290 294 292 290 290 289 299 307 275 271 295 306 314 302 297 178 213 234 215 358 25 17 50 72 159 243 196 173 143 294 220 258 296 321 217 202 224
341 337 340 345 345 343 324 297 286 285 287 286 288 289 290 290 284 286 293 286 272 282 292 296 288 223 240 202 232 261 262 271 228 230 216 270 279 244 180 230 336 211 212 292 243 148 228
336 334 340 340 341 342 344 339 305 287 284 286 285 285 285 287 285 281 272 279 285 276 272 285 284 222 245 143 193 193 188 231 200 183 199 238 179 194 174 152 339 260 210 229 318 212 131
334 337 336 337 337 338 340 343 346 342 302 285 281 280 281 279 285 288 290 288 270 279 264 240 269 196 239 215 189 205 205 186 187 152 179 178 173 198 187 157 220 188 226 238 224 181 170
330 332 334 337 335 335 337 339 343 345 341 326 305 287 279 276 278 291 332 336 287 207 211 197 233 272 274 203 128 215 168 169 137 186 182 192 170 218 205 206 226 246 236 228 194 223 224
333 330 335 333 334 334 335 335 336 338 334 332 328 313 296 281 275 284 241 225 259 174 299 266 257 271 263 305 24 209 147 154 175 207 157 164 226 223 174 204 216 225 238 247 261 250 280
331 337 329 329 329 338 337 334 332 331 332 327 328 329 304 300 274 317 210 212 128 74 272 273 228 226 221 224 234 215 173 156 164 194 198 202 234 193 192 201 212 228 228 244 251 326 281
328 331 332 329 330 337 334 333 330 329 330 329 327 323 324 316 318 198 228 231 218 114 273 236 215 237 214 235 235 229 195 172 179 207 204 231 233 201 215 218 202 237 200 244 255 215 255
326 326 330 330 330 328 331 329 330 328 328 325 321 321 316 302 161 182 270 172 158 143 288 226 201 180 191 189 156 196 207 230 197 178 168 221 149 211 233 228 195 259 183 209 227 246 301
322 323 325 327 327 326 324 324 323 325 324 322 317 313 310 311 175 109 333 96 75 227 238 270 230 187 164 201 210 150 189 206 215 217 197 223 202 214 227 232 211 191 266 243 167 230 252
320 322 322 322 323 323 322 322 321 320 320 319 310 300 294 216 274 152 265 91 195 206 321 225 220 212 198 199 209 197 188 195 191 192 214 219 224 220 167 207 209 198 163 212 235 202 248
312 316 318 320 320 321 321 321 320 318 317 316 311 300 263 200 179 153 279 161 248 215 240 307 3 253 222 200 216 208 189 197 207 208 285 213 227 208 192 209 178 205 199 190 215 222 253
306 310 314 315 317 319 318 319 319 318 317 315 316 259 214 201 177 175 152 209 200 207 203 210 161 252 249 230 223 212 222 208 201 204 214 194 232 182 194 195 179 175 210 212 316 88 304
305 307 309 312 314 316 315 315 316 317 316 317 307 284 240 173 163 172 207 230 235 210 104 37 226 173 243 219 219 210 210 219 227 202 216 235 261 201 179 201 210 201 163 186 211 206 243
314 307 304 304 309 310 313 315 314 316 316 317 262 265 221 161 160 182 216 231 243 207 225 230 217 268 247 253 318 241 246 229 213 220 205 229 251 243 165 197 190 201 201 178 169 197 219
310 310 306 301 301 306 310 313 312 314 317 305 248 238 181 163 193 203 223 247 335 85 184 241 292 236 238 236 262 227 299 286 351 349 223 213 233 234 214 200 202 203 197 184 180 206 231
306 307 308 309 301 301 306 310 311 312 316 308 258 231 198 187 218 220 234 250 277 271 184 206 227 212 239 263 282 255 259 259 263 238 284 225 223 235 218 256 234 209 210 203 213 126 212
298 302 303 307 308 305 304 308 307 309 315 315 260 273 222 206 233 241 229 233 242 213 236 223 249 227 241 240 208 255 245 273 54 273 328 348 271 240 232 227 202 208 216 216 216 216 227
302 300 297 299 303 304 305 305 303 307 312 313 219 246 219 203 230 234 216 225 233 234 217 195 238 235 226 245 231 239 247 261 269 249 228 19 284 323 257 251 239 216 212 214 212 222 217
302 296 295 296 299 298 300 299 302 307 308 259 269 260 259 272 288 219 225 232 250 251 225 220 234 234 216 242 220 241 226 234 239 52 107 117 282 310 303 320 261 237 219 209 214 228 230
298 295 299 296 295 299 297 298 304 306 305 258 234 240 239 237 236 231 236 238 249 241 240 239 228 232 221 230 222 243 221 252 248 216 158 151 235 269 270 285 326 289 247 219 223 220 229
296 294 299 298 298 298 295 298 298 298 292 269 259 263 258 265 249 250 249 254 251 243 245 239 230 220 228 36 137 227 234 248 256 251 181 182 197 231 277 296 252 251 309 308 271 227 223
295 298 295 294 294 292 294 296 294 295 294 278 266 246 262 265 255 261 250 253 258 256 250 246 231 221 130 209 228 233 293 344 252 239 226 204 196 227 249 252 295 291 268 260 244 248 228
306 307 296 296 295 295 294 293 293 295 295 291 262 241 237 257 244 245 258 257 258 257 256 242 227 228 177 161 168 194 203 178 257 280 211 213 203 206 220 257 252 268 288 289 316 293 290
307 305 302 299 299 294 296 296 296 296 296 292 261 250 244 255 241 225 251 263 248 247 256 232 200 177 163 179 193 184 208 187 207 198 155 165 202 215 230 240 253 259 260 273 256 258 278
299 305 306 308 302 302 304 304 301 300 299 299 263 249 224 256 267 252 255 259 277 224 227 121 127 153 166 195 189 165 186 207 191 208 188 191 165 197 228 225 245 187 201 212 198 293 333
297 302 304 304 307 307 309 309 305 304 302 300 279 195 201 233 261 244 255 267 261 274 163 189 156 140 151 152 174 151 192 142 170 235 164 216 192 197 180 203 243 176 191 258 239 263 290